Tracking 28790 objects as of 19-Apr-2024
HD Live streaming from Space Station
objects crossing your sky now

TITAN 3C TRANSTAGE R/B

Track TITAN 3C TRANSTAGE R/B now!


NORAD ID: 2770
Int'l Code: 1967-040F
Perigee: 6,995.8 km
Apogee: 112,699.0 km
Inclination: 17.2 °
Period: 2,826.4 minutes
Semi major axis: 66218 km
RCS: 3.1623 m2 (large)
Launch date: April 28, 1967
Source: United States (US)
Launch site: AIR FORCE EASTERN TEST RANGE (AFETR)

Note: This is a ROCKET BODY
Your satellite tracking list
Your tracking list is empty




NASA's NSSDC Master Catalog

Two Line Element Set (TLE):
1 02770U 67040F   24111.03474716 -.00000886  00000-0  00000-0 0  9997
2 02770  17.1501 235.6320 7981404 306.5685   0.2253  0.50948920 19368
Source of the keplerian elements: AFSPC